| time (UTC) | temp C | wind direction | speed KPH | gust KPH | rain 1hr cm | rain 24hr cm | rain mn cm | humidity % | barometer mb |
| 20260905074216 | 22 | 192 | 11.3 | 20.9 | 0.00 | 0.00 | 0.00 | 30 | 1019.2 |
| 20260905073257 | 22 | 190 | 9.7 | 17.7 | 0.00 | 0.00 | 0.00 | 31 | 1019.0 |
| 20260905072236 | 22 | 211 | 9.7 | 12.9 | 0.00 | 0.00 | 0.00 | 31 | 1018.9 |
| 20260905071237 | 22 | 224 | 8.0 | 11.3 | 0.00 | 0.00 | 0.00 | 30 | 1018.3 |
| 20260905070216 | 22 | 191 | 9.7 | 17.7 | 0.00 | 0.00 | 0.00 | 31 | 1018.4 |
| 20260905065216 | 23 | 201 | 6.4 | 12.9 | 0.00 | 0.00 | 0.00 | 31 | 1018.6 |
| 20260905064216 | 23 | 194 | 4.8 | 8.0 | 0.00 | 0.00 | 0.00 | 30 | 1018.0 |
| 20260905063236 | 23 | 198 | 8.0 | 16.1 | 0.00 | 0.00 | 0.00 | 29 | 1017.8 |
| 20260905062216 | 23 | 188 | 8.0 | 19.3 | 0.00 | 0.00 | 0.00 | 29 | 1017.6 |
| 20260905060216 | 23 | 200 | 17.7 | 25.7 | 0.00 | 0.00 | 0.00 | 29 | 1017.3 |
| 20260905055216 | 23 | 191 | 8.0 | 16.1 | 0.00 | 0.00 | 0.00 | 29 | 1017.2 |
| 20260905054215 | 23 | 177 | 12.9 | 25.7 | 0.00 | 0.00 | 0.00 | 29 | 1016.9 |
| 20260905053216 | 24 | 183 | 11.3 | 17.7 | 0.00 | 0.00 | 0.00 | 29 | 1017.3 |
| 20260905052216 | 23 | 191 | 17.7 | 27.4 | 0.00 | 0.00 | 0.00 | 28 | 1016.9 |
| 20260905051216 | 24 | 195 | 4.8 | 9.7 | 0.00 | 0.00 | 0.00 | 27 | 1016.9 |
| 20260905050215 | 24 | 210 | 8.0 | 16.1 | 0.00 | 0.00 | 0.00 | 27 | 1016.8 |
| 20260905045236 | 24 | 202 | 11.3 | 20.9 | 0.00 | 0.00 | 0.00 | 26 | 1016.8 |
| 20260905044215 | 24 | 195 | 6.4 | 17.7 | 0.00 | 0.00 | 0.00 | 26 | 1016.7 |
| 20260905043215 | 25 | 202 | 11.3 | 16.1 | 0.00 | 0.00 | 0.00 | 26 | 1017.0 |
| 20260905042235 | 24 | 186 | 14.5 | 27.4 | 0.00 | 0.00 | 0.00 | 26 | 1016.7 |
| 20260905041215 | 23 | 200 | 4.8 | 14.5 | 0.00 | 0.00 | 0.00 | 26 | 1016.4 |
| 20260905040215 | 23 | 190 | 3.2 | 6.4 | 0.00 | 0.00 | 0.00 | 26 | 1016.4 |
| 20260905035215 | 23 | 198 | 4.8 | 8.0 | 0.00 | 0.00 | 0.00 | 26 | 1016.1 |
| 20260905034215 | 24 | 174 | 3.2 | 8.0 | 0.00 | 0.00 | 0.00 | 25 | 1015.6 |
| 20260905033215 | 24 | 196 | 6.4 | 9.7 | 0.00 | 0.00 | 0.00 | 25 | 1015.7 |
| 20260905032215 | 24 | 186 | 4.8 | 9.7 | 0.00 | 0.00 | 0.00 | 25 | 1015.5 |
| 20260905031215 | 25 | 198 | 6.4 | 11.3 | 0.00 | 0.00 | 0.00 | 25 | 1015.4 |
| 20260905030235 | 25 | 208 | 9.7 | 12.9 | 0.00 | 0.00 | 0.00 | 25 | 1015.4 |
| 20260905025235 | 25 | 200 | 3.2 | 6.4 | 0.00 | 0.00 | 0.00 | 26 | 1015.5 |
| 20260905024215 | 26 | 188 | 9.7 | 12.9 | 0.00 | 0.00 | 0.00 | 25 | 1015.2 |
| 20260905023215 | 26 | 196 | 12.9 | 14.5 | 0.00 | 0.00 | 0.00 | 25 | 1015.1 |
| 20260905022235 | 26 | 215 | 8.0 | 11.3 | 0.00 | 0.00 | 0.00 | 25 | 1015.0 |
| 20260905021215 | 26 | 201 | 11.3 | 19.3 | 0.00 | 0.00 | 0.00 | 24 | 1014.6 |
| 20260905020215 | 26 | 179 | 11.3 | 16.1 | 0.00 | 0.00 | 0.00 | 25 | 1014.4 |
| 20260905015215 | 27 | 179 | 9.7 | 20.9 | 0.00 | 0.00 | 0.00 | 24 | 1014.7 |
| 20260905014215 | 27 | 178 | 8.0 | 19.3 | 0.00 | 0.00 | 0.00 | 24 | 1014.4 |
| 20260905013215 | 27 | 190 | 14.5 | 27.4 | 0.00 | 0.00 | 0.00 | 23 | 1014.4 |
| 20260905012215 | 27 | 182 | 16.1 | 32.2 | 0.00 | 0.00 | 0.00 | 23 | 1014.4 |
| 20260905011215 | 28 | 199 | 12.9 | 22.5 | 0.00 | 0.00 | 0.00 | 23 | 1014.6 |
| 20260905010215 | 28 | 191 | 22.5 | 35.4 | 0.00 | 0.00 | 0.00 | 23 | 1014.6 |
| 20260905005215 | 28 | 187 | 16.1 | 33.8 | 0.00 | 0.00 | 0.00 | 23 | 1014.7 |
| 20260905004215 | 28 | 214 | 19.3 | 37.0 | 0.00 | 0.00 | 0.00 | 22 | 1015.0 |
| 20260905003215 | 28 | 204 | 24.1 | 38.6 | 0.00 | 0.00 | 0.00 | 22 | 1015.0 |
| 20260905002215 | 28 | 202 | 20.9 | 35.4 | 0.00 | 0.00 | 0.00 | 22 | 1015.1 |
| 20260905001215 | 28 | 200 | 20.9 | 40.2 | 0.00 | 0.00 | 0.00 | 21 | 1015.1 |
| 20260905000218 | 28 | 193 | 24.1 | 35.4 | 0.00 | 0.00 | 0.00 | 21 | 1015.1 |
| 20260904235315 | 28 | 198 | 19.3 | 38.6 | 0.00 | 0.00 | 0.00 | 21 | 1015.0 |
| 20260904234216 | 28 | 194 | 27.4 | 38.6 | 0.00 | 0.00 | 0.00 | 20 | 1014.7 |
| 20260904233217 | 29 | 201 | 25.7 | 40.2 | 0.00 | 0.00 | 0.00 | 20 | 1014.9 |
| 20260904232215 | 29 | 196 | 22.5 | 38.6 | 0.00 | 0.00 | 0.00 | 19 | 1014.8 |
| 20260904231237 | 29 | 188 | 25.7 | 38.6 | 0.00 | 0.00 | 0.00 | 19 | 1015.3 |
| 20260904230216 | 29 | 189 | 22.5 | 41.8 | 0.00 | 0.00 | 0.00 | 19 | 1015.2 |
| 20260904225217 | 28 | 198 | 22.5 | 35.4 | 0.00 | 0.00 | 0.00 | 18 | 1015.3 |
| 20260904224217 | 29 | 216 | 25.7 | 33.8 | 0.00 | 0.00 | 0.00 | 18 | 1015.7 |
| 20260904223217 | 29 | 193 | 25.7 | 45.1 | 0.00 | 0.00 | 0.00 | 18 | 1015.7 |
| 20260904222217 | 29 | 200 | 20.9 | 35.4 | 0.00 | 0.00 | 0.00 | 18 | 1015.8 |
| 20260904221217 | 28 | 195 | 27.4 | 38.6 | 0.00 | 0.00 | 0.00 | 18 | 1015.7 |
| 20260904220217 | 28 | 197 | 19.3 | 32.2 | 0.00 | 0.00 | 0.00 | 18 | 1015.9 |
| 20260904215217 | 28 | 186 | 24.1 | 43.5 | 0.00 | 0.00 | 0.00 | 18 | 1016.1 |
| 20260904214216 | 28 | 189 | 16.1 | 33.8 | 0.00 | 0.00 | 0.00 | 17 | 1016.1 |
| 20260904213217 | 28 | 204 | 24.1 | 37.0 | 0.00 | 0.00 | 0.00 | 18 | 1016.2 |
| 20260904212216 | 28 | 192 | 20.9 | 38.6 | 0.00 | 0.00 | 0.00 | 18 | 1016.3 |
| 20260904211216 | 28 | 180 | 24.1 | 40.2 | 0.00 | 0.00 | 0.00 | 18 | 1016.1 |
| 20260904210217 | 28 | 174 | 19.3 | 38.6 | 0.00 | 0.00 | 0.00 | 17 | 1016.2 |
| 20260904205237 | 28 | 194 | 16.1 | 33.8 | 0.00 | 0.00 | 0.00 | 17 | 1016.4 |
| 20260904204216 | 28 | 181 | 17.7 | 32.2 | 0.00 | 0.00 | 0.00 | 18 | 1016.7 |
| 20260904203216 | 28 | 186 | 16.1 | 30.6 | 0.00 | 0.00 | 0.00 | 17 | 1016.9 |
| 20260904202216 | 27 | 216 | 17.7 | 32.2 | 0.00 | 0.00 | 0.00 | 18 | 1016.6 |
| 20260904201216 | 27 | 205 | 16.1 | 35.4 | 0.00 | 0.00 | 0.00 | 18 | 1016.6 |
| 20260904200216 | 27 | 190 | 24.1 | 38.6 | 0.00 | 0.00 | 0.00 | 17 | 1016.7 |
| 20260904195216 | 27 | 200 | 20.9 | 41.8 | 0.00 | 0.00 | 0.00 | 17 | 1016.8 |
| 20260904194216 | 27 | 194 | 24.1 | 38.6 | 0.00 | 0.00 | 0.00 | 17 | 1017.5 |
| 20260904193216 | 27 | 205 | 25.7 | 40.2 | 0.00 | 0.00 | 0.00 | 19 | 1017.8 |
| 20260904192216 | 27 | 205 | 19.3 | 32.2 | 0.00 | 0.00 | 0.00 | 19 | 1018.0 |
| 20260904191216 | 27 | 227 | 24.1 | 41.8 | 0.00 | 0.00 | 0.00 | 19 | 1017.7 |
| 20260904190256 | 26 | 180 | 22.5 | 41.8 | 0.00 | 0.00 | 0.00 | 19 | 1017.8 |
| 20260904185216 | 26 | 187 | 22.5 | 32.2 | 0.00 | 0.00 | 0.00 | 19 | 1017.9 |
| 20260904184216 | 26 | 196 | 12.9 | 29.0 | 0.00 | 0.00 | 0.00 | 21 | 1018.5 |
| 20260904183216 | 26 | 200 | 19.3 | 43.5 | 0.00 | 0.00 | 0.00 | 20 | 1018.3 |
| 20260904182216 | 26 | 171 | 17.7 | 27.4 | 0.00 | 0.00 | 0.00 | 21 | 1018.6 |
| 20260904181216 | 25 | 197 | 29.0 | 45.1 | 0.00 | 0.00 | 0.00 | 22 | 1018.4 |
| 20260904180216 | 25 | 174 | 16.1 | 35.4 | 0.00 | 0.00 | 0.00 | 22 | 1018.5 |
| 20260904175216 | 25 | 188 | 19.3 | 35.4 | 0.00 | 0.00 | 0.00 | 22 | 1018.6 |
| 20260904174236 | 25 | 198 | 22.5 | 41.8 | 0.00 | 0.00 | 0.00 | 25 | 1018.9 |
| 20260904173216 | 25 | 178 | 17.7 | 37.0 | 0.00 | 0.00 | 0.00 | 27 | 1018.7 |
| 20260904172216 | 25 | 176 | 22.5 | 51.5 | 0.00 | 0.00 | 0.00 | 26 | 1018.6 |
| 20260904171216 | 24 | 185 | 16.1 | 35.4 | 0.00 | 0.00 | 0.00 | 27 | 1018.7 |
| 20260904170216 | 23 | 155 | 16.1 | 24.1 | 0.00 | 0.00 | 0.00 | 28 | 1018.3 |
| 20260904165216 | 23 | 132 | 12.9 | 17.7 | 0.00 | 0.00 | 0.00 | 31 | 1018.4 |
| 20260904164216 | 23 | 149 | 16.1 | 32.2 | 0.00 | 0.00 | 0.00 | 31 | 1018.7 |
| 20260904163236 | 23 | 178 | 20.9 | 45.1 | 0.00 | 0.00 | 0.00 | 32 | 1018.7 |
| 20260904162216 | 23 | 173 | 14.5 | 25.7 | 0.00 | 0.00 | 0.00 | 30 | 1018.6 |
| 20260904161216 | 23 | 168 | 16.1 | 29.0 | 0.00 | 0.00 | 0.00 | 29 | 1018.8 |
| 20260904160215 | 23 | 167 | 17.7 | 27.4 | 0.00 | 0.00 | 0.00 | 30 | 1018.8 |
| 20260904155236 | 23 | 178 | 16.1 | 29.0 | 0.00 | 0.00 | 0.00 | 31 | 1018.9 |
| 20260904154216 | 22 | 169 | 6.4 | 17.7 | 0.00 | 0.00 | 0.00 | 26 | 1018.4 |
| 20260904153216 | 22 | 147 | 11.3 | 16.1 | 0.00 | 0.00 | 0.00 | 25 | 1018.3 |
| 20260904152215 | 21 | 148 | 11.3 | 16.1 | 0.00 | 0.00 | 0.00 | 25 | 1018.1 |
| 20260904151216 | 21 | 137 | 11.3 | 19.3 | 0.00 | 0.00 | 0.00 | 25 | 1018.1 |
| 20260904150216 | 21 | 162 | 1.6 | 3.2 | 0.00 | 0.00 | 0.00 | 28 | 1017.7 |
| 20260904145215 | 21 | 170 | 3.2 | 8.0 | 0.00 | 0.00 | 0.00 | 28 | 1017.9 |
| 20260904144215 | 21 | 139 | 4.8 | 8.0 | 0.00 | 0.00 | 0.00 | 29 | 1018.1 |
| 20260904143216 | 21 | 97 | 4.8 | 4.8 | 0.00 | 0.00 | 0.00 | 28 | 1018.0 |
| 20260904142215 | 21 | 242 | 1.6 | 3.2 | 0.00 | 0.00 | 0.00 | 25 | 1018.1 |
| 20260904141216 | 20 | 242 | 0.0 | 1.6 | 0.00 | 0.00 | 0.00 | 26 | 1017.9 |
| 20260904140215 | 20 | 0.0 | 1.6 | 0.00 | 0.00 | 0.00 | 26 | 1017.7 | |
| 20260904135216 | 19 | 242 | 0.0 | 1.6 | 0.00 | 0.00 | 0.00 | 28 | 1017.4 |
| 20260904134215 | 18 | 242 | 0.0 | 3.2 | 0.00 | 0.00 | 0.00 | 27 | 1017.6 |
| 20260904133215 | 18 | 242 | 6.4 | 8.0 | 0.00 | 0.00 | 0.00 | 27 | 1017.3 |
| 20260904132215 | 17 | 297 | 1.6 | 6.4 | 0.00 | 0.00 | 0.00 | 27 | 1017.0 |
| 20260904131215 | 18 | 246 | 1.6 | 3.2 | 0.00 | 0.00 | 0.00 | 26 | 1016.9 |
| 20260904130215 | 18 | 246 | 1.6 | 4.8 | 0.00 | 0.00 | 0.00 | 25 | 1016.7 |
| 20260904125215 | 18 | 247 | 3.2 | 6.4 | 0.00 | 0.00 | 0.00 | 24 | 1016.8 |
| 20260904124215 | 18 | 250 | 4.8 | 6.4 | 0.00 | 0.00 | 0.00 | 24 | 1017.1 |
| 20260904123215 | 18 | 250 | 4.8 | 8.0 | 0.00 | 0.00 | 0.00 | 23 | 1017.0 |
| 20260904122215 | 18 | 240 | 1.6 | 4.8 | 0.00 | 0.00 | 0.00 | 23 | 1016.5 |
| 20260904121215 | 18 | 240 | 4.8 | 6.4 | 0.00 | 0.00 | 0.00 | 23 | 1016.8 |
| 20260904120215 | 18 | 244 | 4.8 | 4.8 | 0.00 | 0.00 | 0.00 | 23 | 1016.8 |
| 20260904115215 | 18 | 244 | 4.8 | 6.4 | 0.00 | 0.00 | 0.00 | 23 | 1016.8 |
| 20260904114215 | 19 | 228 | 6.4 | 8.0 | 0.00 | 0.00 | 0.00 | 22 | 1016.6 |
| 20260904113215 | 18 | 240 | 8.0 | 14.5 | 0.00 | 0.00 | 0.00 | 23 | 1016.6 |
| 20260904112215 | 18 | 271 | 4.8 | 6.4 | 0.00 | 0.00 | 0.00 | 24 | 1016.3 |
| 20260904111215 | 18 | 241 | 1.6 | 3.2 | 0.00 | 0.00 | 0.00 | 22 | 1016.3 |
| 20260904110215 | 18 | 241 | 1.6 | 3.2 | 0.00 | 0.00 | 0.00 | 22 | 1016.1 |
| 20260904105215 | 18 | 234 | 1.6 | 3.2 | 0.00 | 0.00 | 0.00 | 21 | 1016.4 |
| 20260904104215 | 18 | 245 | 8.0 | 12.9 | 0.00 | 0.00 | 0.00 | 21 | 1016.3 |
| 20260904103215 | 18 | 269 | 8.0 | 9.7 | 0.00 | 0.00 | 0.00 | 22 | 1016.3 |
| 20260904102215 | 19 | 233 | 1.6 | 6.4 | 0.00 | 0.00 | 0.00 | 21 | 1016.5 |
| 20260904101215 | 18 | 231 | 3.2 | 8.0 | 0.00 | 0.00 | 0.00 | 20 | 1016.1 |
| 20260904100215 | 18 | 279 | 4.8 | 6.4 | 0.00 | 0.00 | 0.00 | 28 | 1015.8 |
| 20260904095215 | 18 | 62 | 3.2 | 4.8 | 0.00 | 0.00 | 0.00 | 32 | 1016.2 |
| 20260904094215 | 18 | 26 | 6.4 | 8.0 | 0.00 | 0.00 | 0.00 | 30 | 1015.8 |
| 20260904093235 | 18 | 7 | 8.0 | 12.9 | 0.00 | 0.00 | 0.00 | 30 | 1015.6 |
| 20260904092215 | 19 | 56 | 4.8 | 8.0 | 0.00 | 0.00 | 0.00 | 31 | 1016.0 |
| 20260904091217 | 18 | 71 | 6.4 | 9.7 | 0.00 | 0.00 | 0.00 | 33 | 1015.4 |
| 20260904090215 | 18 | 42 | 3.2 | 3.2 | 0.00 | 0.00 | 0.00 | 21 | 1015.6 |
| 20260904085237 | 18 | 42 | 0.0 | 6.4 | 0.00 | 0.00 | 0.00 | 23 | 1015.2 |
| 20260904084215 | 18 | 294 | 3.2 | 4.8 | 0.00 | 0.00 | 0.00 | 30 | 1015.3 |
| 20260904083237 | 19 | 298 | 4.8 | 6.4 | 0.00 | 0.00 | 0.00 | 33 | 1015.6 |
| 20260904082217 | 20 | 119 | 0.0 | 4.8 | 0.00 | 0.00 | 0.00 | 30 | 1015.7 |
| 20260904081217 | 19 | 105 | 3.2 | 6.4 | 0.00 | 0.00 | 0.00 | 29 | 1015.3 |
| 20260904080217 | 19 | 74 | 1.6 | 4.8 | 0.00 | 0.00 | 0.00 | 33 | 1015.4 |
| 20260904075217 | 18 | 302 | 3.2 | 4.8 | 0.00 | 0.00 | 0.00 | 35 | 1015.0 |